Ruidoso, NM

8:21 AM MDT on June 27, 2017 (GMT -0600)
Sierra Blanca Regional

Weather History for KSRR - August, 2014

Change the Weather History Date:

Saturday, August 16, 2014

  Actual Average Record
Temperature  
Mean Temperature 68 °F -  
Max Temperature 80 °F 78 °F 86 °F (2002)
Min Temperature 57 °F 55 °F 50 °F (2003)
Cooling Degree Days 4    
Growing Degree Days 18 (Base 50)    
Moisture  
Dew Point 51 °F    
Average Humidity 63    
Maximum Humidity 88    
Minimum Humidity 30    
Precipitation  
Precipitation 0.10 in - - ()
Sea Level Pressure  
Sea Level Pressure 30.32 in    
Wind  
Wind Speed - (North)    
Max Wind Speed -    
Max Gust Speed -    
Visibility 10 miles    
Events Rain , Thunderstorm    
Averages and records for this station are not official NWS values.
T = Trace of Precipitation, MM = Missing Value Source: NWS Daily Summary

Daily Weather History Graph

Daily Weather History Graph

Search for Another Location

Airport or City:

Trip Planner

Search our weather history database for the weather conditions in past years. The results will help you decide how hot, cold, wet, or windy it might be!

Date:

Astronomy

Aug. 16, 2014 Rise Set
Actual Time 6:25 AM MDT 7:46 PM MDT
Civil Twilight 5:59 AM MDT 8:13 PM MDT
Nautical Twilight 5:27 AM MDT 8:44 PM MDT
Astronomical Twilight 4:55 AM MDT 9:16 PM MDT
Moon 11:54 PM MDT (8/16) 12:52 PM MDT (8/16)
Length of Visible Light 14h 13m
Length of Day
13h 21m
Waning Gibbous, 58% of the Moon is Illuminated
Aug 16
Waning Gibbous
Aug 17
Last Quarter
Aug 25
New
Sep 2
First Quarter
Sep 8
Full

Hourly Weather History & Observations

Time (MDT) Temp. Dew Point Humidity Pressure Visibility Wind Dir Wind Speed Gust Speed Precip Events Conditions
12:15 AM 59.0 °F 51.8 °F 77% 30.31 in 10.0 mi North - - N/A   Clear
12:35 AM 60.8 °F 51.8 °F 72% 30.30 in 10.0 mi North - - N/A   Clear
12:55 AM 59.0 °F 51.8 °F 77% 30.30 in 10.0 mi North - - N/A   Clear
1:15 AM 59.0 °F 51.8 °F 77% 30.29 in 10.0 mi North - - N/A   Clear
1:35 AM 59.0 °F 51.8 °F 77% 30.29 in 10.0 mi North - - N/A   Clear
1:55 AM 59.0 °F 50.0 °F 72% 30.29 in 10.0 mi North - - N/A   Clear
2:15 AM 60.8 °F 50.0 °F 68% 30.28 in 10.0 mi North - - N/A   Clear
2:35 AM 60.8 °F 50.0 °F 68% 30.28 in 10.0 mi North - - N/A   Clear
2:55 AM 60.8 °F 50.0 °F 68% 30.28 in 10.0 mi North - - N/A   Clear
3:15 AM 60.8 °F 50.0 °F 68% 30.27 in 10.0 mi North - - N/A   Clear
3:35 AM 59.0 °F 50.0 °F 72% 30.28 in 10.0 mi North - - N/A   Clear
3:55 AM 62.6 °F 48.2 °F 59% 30.28 in 10.0 mi North - - N/A   Clear
4:15 AM 60.8 °F 50.0 °F 68% 30.28 in 10.0 mi North - - N/A   Clear
4:35 AM 59.0 °F 50.0 °F 72% 30.28 in 10.0 mi North - - N/A   Clear
5:15 AM 62.6 °F 50.0 °F 63% 30.29 in 10.0 mi North - - N/A   Clear
5:35 AM 62.6 °F 50.0 °F 63% 30.29 in 10.0 mi North - - N/A   Clear
5:55 AM 62.6 °F 50.0 °F 63% 30.30 in 10.0 mi North - - N/A   Clear
6:15 AM 60.8 °F 50.0 °F 68% 30.31 in 10.0 mi North - - N/A   Clear
6:35 AM 62.6 °F 50.0 °F 63% 30.31 in 10.0 mi North - - N/A   Clear
6:55 AM 62.6 °F 50.0 °F 63% 30.31 in 10.0 mi North - - N/A   Clear
7:15 AM 62.6 °F 50.0 °F 63% 30.32 in 10.0 mi North - - N/A   Clear
7:35 AM 60.8 °F 51.8 °F 72% 30.33 in 10.0 mi North - - N/A   Clear
7:55 AM 60.8 °F 51.8 °F 72% 30.33 in 10.0 mi North - - N/A   Clear
8:15 AM 64.4 °F 50.0 °F 59% 30.33 in 10.0 mi North - - N/A   Clear
8:35 AM 66.2 °F 48.2 °F 52% 30.34 in 10.0 mi North - - N/A   Clear
8:55 AM 68.0 °F 50.0 °F 52% 30.34 in 10.0 mi North - - N/A   Clear
9:15 AM 68.0 °F 53.6 °F 60% 30.34 in 10.0 mi North - - N/A   Clear
9:35 AM 68.0 °F 51.8 °F 56% 30.34 in 10.0 mi North - - N/A   Clear
9:55 AM 71.6 °F 51.8 °F 50% 30.34 in 10.0 mi North - - N/A   Clear
10:15 AM 71.6 °F 50.0 °F 46% 30.34 in 10.0 mi North - - N/A   Clear
10:35 AM 73.4 °F 50.0 °F 44% 30.35 in 10.0 mi North - - N/A   Clear
10:55 AM 75.2 °F 48.2 °F 38% 30.34 in 10.0 mi North - - N/A   Clear
11:15 AM 75.2 °F 50.0 °F 41% 30.34 in 10.0 mi North - - N/A   Clear
11:55 AM 77.0 °F 46.4 °F 34% 30.34 in 10.0 mi North - - N/A Rain Light Rain
12:15 PM 77.0 °F 44.6 °F 32% 30.33 in 10.0 mi North - - N/A   Clear
12:35 PM 78.8 °F 48.2 °F 34% 30.33 in 10.0 mi North - - N/A   Clear
12:55 PM 80.6 °F 46.4 °F 30% 30.32 in 10.0 mi North - - N/A   Clear
1:15 PM 80.6 °F 48.2 °F 32% 30.32 in 10.0 mi North - - N/A   Clear
1:35 PM 77.0 °F 50.0 °F 39% 30.31 in 10.0 mi North - - N/A   Scattered Clouds
1:55 PM 75.2 °F 51.8 °F 44% 30.31 in 10.0 mi North - - N/A   Mostly Cloudy
2:15 PM 77.0 °F 50.0 °F 39% 30.30 in 10.0 mi North - - N/A   Mostly Cloudy
2:35 PM 75.2 °F 51.8 °F 44% 30.31 in 10.0 mi North - - N/A Rain Light Rain
2:55 PM 69.8 °F 57.2 °F 64% 30.31 in 5.0 mi North - - N/A Rain , Thunderstorm Light Rain
3:15 PM 62.6 °F 53.6 °F 72% 30.31 in 1.8 mi North - - 0.01 in Rain , Thunderstorm Light Thunderstorms and Rain
3:35 PM 66.2 °F 57.2 °F 73% 30.29 in 8.0 mi North - - 0.02 in Thunderstorm Thunderstorm
3:55 PM 60.8 °F 53.6 °F 77% 30.36 in 1.5 mi North - - 0.06 in Rain , Thunderstorm Thunderstorms and Rain
4:35 PM 64.4 °F 55.4 °F 73% 30.31 in 10.0 mi North - - 0.02 in Thunderstorm Partly Cloudy
5:15 PM 64.4 °F 57.2 °F 77% 30.29 in 10.0 mi North - - N/A   Clear
5:35 PM 64.4 °F 57.2 °F 77% 30.29 in 10.0 mi North - - 0.01 in   Clear
5:55 PM 64.4 °F 55.4 °F 73% 30.30 in 10.0 mi North - - 0.02 in   Clear
6:15 PM 64.4 °F 55.4 °F 73% 30.29 in 10.0 mi North - - N/A   Clear
6:35 PM 64.4 °F 53.6 °F 68% 30.30 in 10.0 mi North - - N/A   Clear
6:55 PM 64.4 °F 53.6 °F 68% 30.30 in 10.0 mi North - - N/A   Clear
7:15 PM 64.4 °F 55.4 °F 73% 30.30 in 10.0 mi North - - N/A   Clear
7:55 PM 62.6 °F 55.4 °F 77% 30.30 in 10.0 mi North - - N/A   Clear
8:35 PM 60.8 °F 53.6 °F 77% 30.31 in 10.0 mi North - - N/A   Clear
8:55 PM 62.6 °F 50.0 °F 63% 30.32 in 10.0 mi North - - N/A   Clear
9:15 PM 62.6 °F 50.0 °F 63% 30.33 in 10.0 mi North - - N/A   Clear
9:35 PM 62.6 °F 50.0 °F 63% 30.33 in 10.0 mi North - - N/A   Clear
9:55 PM 62.6 °F 53.6 °F 72% 30.36 in 10.0 mi North - - N/A   Mostly Cloudy
10:15 PM 59.0 °F 55.4 °F 88% 30.36 in 10.0 mi North - - N/A   Scattered Clouds
10:35 PM 59.0 °F 53.6 °F 82% 30.36 in 10.0 mi North - - N/A   Clear
10:55 PM 59.0 °F 53.6 °F 82% 30.36 in 10.0 mi North - - N/A   Partly Cloudy
11:15 PM 59.0 °F 53.6 °F 82% 30.36 in 10.0 mi North - - N/A   Partly Cloudy
11:35 PM 57.2 °F 51.8 °F 82% 30.36 in 10.0 mi North - - N/A   Clear
11:55 PM 59.0 °F 50.0 °F 72% 30.37 in 10.0 mi North - - N/A   Clear